Preview of NWS' New Version of Forecast
This preview is not operational and should not be used for support decisions.

Regional Weather Roundup (RWR)

Issued by National Weather Service (NWS)

                            
000
ASUS45 KBOU 200610
RWRCO 

WEATHER ROUNDUP FOR COLORADO
NATIONAL WEATHER SERVICE DENVER/BOULDER CO
1100 PM MST TUE FEB 19 2019

NOTE: "FAIR" INDICATES FEW OR NO CLOUDS BELOW 12000 FEET WITH NO
SIGNIFICANT WEATHER AND/OR OBSTRUCTIONS TO VISIBILITY.

COZ001>005-013-030-031-200700-
...NORTHWEST COLORADO...
  
CITY           SKY/WX    TMP DP  RH WIND       PRES   REMARKS
CRAIG          LGT SNOW   3  -1  83 CALM      29.76F FOG              
HAYDEN         LGT SNOW   4   1  88 CALM      29.74F FOG              
MEEKER         LGT SNOW   5   0  79 CALM      29.75F                  
RANGELY        MOCLDY    12   8  86 SE5       29.81F WCI   4          
RABBIT EARS PA LGT SNOW N/A N/A N/A W9G18     29.48F                  
STEAMBOAT SPGS CLOUDY     3   1  90 CALM      29.71F                  
WALDEN         FAIR      -8 -13  77 SE7       29.61F WCI -22          
$$

COZ006>008-011-200700-
...WEST CENTRAL VALLEYS...
  
CITY           SKY/WX    TMP DP  RH WIND       PRES   REMARKS
GRAND JUNCTION LGT SNOW  22  20  92 SW6       29.81F FOG     WCI  14  
MONTROSE       CLOUDY    20  13  74 S3        29.81R                  
EAGLE          MOCLDY     4   0  83 CALM      29.74F                  
RIFLE          CLOUDY    18   8  65 SW3       29.78F                  
DELTA          FAIR      25  13  60 W15       29.79S WCI  13          
NUCLA          CLOUDY    21  12  68 SW3       29.82S                  
$$

COZ017>023-064>068-200700-
...SOUTHWEST COLORADO...
  
CITY           SKY/WX    TMP DP  RH WIND       PRES   REMARKS
DURANGO        FAIR       9   6  88 W6        29.74S WCI  -1          
CORTEZ         LGT SNOW  17   8  67 E3        29.82S                  
PAGOSA SPRINGS FAIR       0  -3  89 CALM      29.70S                  
TELLURIDE      FLURRIES   5   3  92 S3        29.68S                  
WOLF CREEK PAS CLOUDY    -4  -6  92 SW12G20   29.54F WCI -22          
$$

COZ009-010-012-014-032>034-037-058>063-200700-
...CENTRAL COLORADO...
  
CITY           SKY/WX    TMP DP  RH WIND       PRES   REMARKS
ASPEN          LGT SNOW  11   7  84 CALM      29.64F FOG              
BUENA VISTA    FAIR       6  -6  56 NW9       29.58F WCI  -8          
COPPER MTN     LGT SNOW   0  -8  71 W12       29.42F WCI -18          
BERTHOUD PASS  MOCLDY   -15 -24  64 NW29      29.34F WCI -45          
DAKOTA HILL    CLOUDY    -6 -11  77 NW13G28   29.38F WCI -25          
COTTONWOOD PAS MOCLDY     9   0  66 W12G22    29.50F WCI  -6          
GUNNISON       FAIR      -2  -8  76 N6        29.67S WCI -14          
GRANBY         CLOUDY     3  -4  73 SE3       29.62F                  
KREMMLING      CLOUDY     3  -4  72 CALM      29.69S                  
LEADVILLE      MOCLDY    -3  -8  79 N6        29.51F WCI -15          
MONARCH PASS   CLOUDY    -4  -9  77 W32G41    29.53F WCI -32          
SALIDA         FAIR      17   1  49 W15G22    29.67S WCI   2          
SUNLIGHT       LGT SNOW  -4  -8  84 SW7G22    29.57F WCI -18          
WILKERSON PASS SNOW       1  -4  78 W3        29.46F VSB 1/2          
$$

COZ069>075-200700-
...SAN LUIS VALLEY/SANGRE DE CRISTO MOUNTAINS...
  
CITY           SKY/WX    TMP DP  RH WIND       PRES   REMARKS
ALAMOSA        CLOUDY    13   3  64 W7        29.64R WCI   3          
DEL NORTE      FAIR       8  -3  59 W10       29.62F WCI  -6          
LA VETA PASS   NOT AVBL                                               
SAGUACHE       FAIR      10   0  61 CALM      29.62S                  
$$

COZ035-036-038>040-200700-
...NORTHERN COLORADO FRONT RANGE...
  
CITY           SKY/WX    TMP DP  RH WIND       PRES   REMARKS
DENVER INTL AP FAIR      15  10  80 W5        29.65F WCI   8          
AURORA         PTCLDY    13  13  98 SW5       29.65F WCI   5          
FRONT RANGE AP NOT AVBL                                               
ERIE MUNI ARPT FAIR      13  11  91 CALM      29.74F                  
BOULDER MUN AP FAIR      16  12  86 CALM      29.66F                  
CENTENNIAL     FAIR      11   9  92 S3        29.64F                  
BROOMFIELD     FAIR      14  12  92 CALM      29.66F                  
FORT COLLINS   FAIR      13  10  88 NE5       29.69F WCI   5          
LONGMONT       FAIR      13   8  81 W5        29.70F HAZE    WCI   5  
$$

COZ041-046-047-076>085-087-088-200700-
...PIKES PEAK/PALMER DIVIDE AND SOUTHERN FOOTHILLS...
  
CITY           SKY/WX    TMP DP  RH WIND       PRES   REMARKS
COLO. SPRINGS  CLOUDY    14  12  92 S5        29.64F WCI   6          
A. F. ACADEMY  FAIR       7   3  86 N3        29.61F                  
SCHRIEVER AFB  NOT AVBL                                               
CHEYENNE MTN   CLOUDY    11  10  93 CALM      29.55F                  
ELLICOTT         N/A    N/A N/A N/A NW3         N/A                   
FALCON         FAIR       7   2  80 W5        29.61F WCI  -1          
FORT CARSON    FAIR      15  12  89 S5        29.64F WCI   7          
LIMON          LGT SNOW  13  12  96 CALM      29.66F FOG              
MONUMENT HILL  FAIR       5   1  85 W8        29.60F WCI  -8          
CANON CITY     NOT AVBL                                               
WALSENBURG     NOT AVBL                                               
TRINIDAD       CLOUDY    19  15  84 NW8       29.66S WCI   9          
$$

COZ042>045-048>051-090-091-200700-
...NORTHEAST COLORADO...
  
CITY           SKY/WX    TMP DP  RH WIND       PRES   REMARKS
GREELEY ARPT   FAIR       8   6  92 N6        29.71F WCI  -2          
AKRON          CLOUDY    12  10  92 S5        29.68F WCI   4          
BURLINGTON     LGT SNOW  15  12  88 CALM      29.72F FOG              
WRAY           LGT SNOW  16  12  86 CALM      29.76F                  
YUMA           LGT SNOW  14  10  85 CALM      29.73F                  
STERLING       CLOUDY    16  12  86 CALM      29.73F                  
HOLYOKE        LGT SNOW  16  12  86 CALM      29.76F                  
FORT MORGAN      N/A      9   6  87 N6        29.71F WCI  -1          
$$

COZ086-089-092>099-200700-
...SOUTHEAST COLORADO...
  
CITY           SKY/WX    TMP DP  RH WIND       PRES   REMARKS
PUEBLO         LGT SNOW  20  16  84 CALM      29.71F FOG              
LA JUNTA       LGT SNOW  21  17  84 N12       29.72R FOG     WCI   9  
LAMAR          LGT SNOW  21  18  88 MISG      29.69F FOG              
SPRINGFIELD      N/A     13  13 100 SW6       29.67F WCI   4          
$$